Current Version              Previous Version:    01  02  03  04  05  06  07  08  09  10  11  12  13  14  15  16  17  18  19  20  21  22  23  24  25  26  27  28  29  30  
   31  32  33  34  35  36  37  38  39  40  41  42  43  44  45  46  47  48  49  50  51  52  53  54  55  56  57  58  59  60  

[Printable]
813
ASUS44 KEWX 230702
RWRTX
SOUTH TEXAS REGIONAL WEATHER ROUNDUP
NATIONAL WEATHER SERVICE AUSTIN/SAN ANTONIO TX
200 AM CDT SAT AUG 23 2014

NOTE: "FAIR" INDICATED FEW OR NO CLOUDS BELOW 12,000 FEET WITH NO
SIGNIFICANT WEATHER AND/OR OBSTRUCTIONS TO VISIBILITY.

* - THESE STATIONS ARE NOT NWS OR FAA STATIONS...AND ARE NOT SUBJECT
    TO NWS AND FAA QUALITY CONTROL.

TXZ171-172-183>190-230800-
TEXAS HILL COUNTRY AND EDWARDS PLATEAU

CITY           SKY/WX    TMP DP  RH WIND       PRES   REMARKS
JUNCTION       CLEAR     78  62  57 S7        30.04R
*LLANO         CLEAR     82  57  42 S8        30.04S
BURNET         CLEAR     80  60  50 S7        30.05S
*HORSESHOE BAY CLEAR     79  60  51 S7        30.02R
*KERRVILLE     CLEAR     76  65  66 E7        30.06R
*FREDERICKSBRG CLEAR     77  60  56 S8        30.06R
*ROCKSPRINGS   CLEAR     77  64  65 SE9G18    30.09R
*BOERNE STAGE  CLEAR     75  64  69 S7        30.06S
*CASTROVILLE   CLEAR     79  68  69 SE6       30.03S
HONDO          CLEAR     78  68  71 SE8       30.04R
*UVALDE        CLEAR     81  66  60 SE12      30.02R
DEL RIO        CLEAR     85  65  51 SE10      29.96R
LAUGHLIN AFB   CLEAR     84  67  55 SE12      29.98R
CARRIZO SPRGS  CLEAR     81  68  65 SE10G16   29.97S
$$

TXZ173-191>194-202-209-217>225-228-230800-
CENTRAL AND SOUTH CENTRAL TEXAS

CITY           SKY/WX    TMP DP  RH WIND       PRES   REMARKS
GEORGETOWN     CLEAR     82  70  65 S14       30.02S
AUSTIN/BERGSTM PTCLDY    78  73  84 S8        30.01S
AUSTIN/MABRY   CLEAR     80  72  76 S6        30.02S
*AUSTIN/EXEC     N/A     77  72  83 S7        30.02S
*LAGO VISTA    CLEAR     79  67  65 S6        30.05R
SAN MARCOS     CLOUDY    79  70  73 S6        30.04S
NEW BRAUNFELS  PTCLDY    77  73  87 S7        30.01S
RANDOLPH AFB   MOCLDY    78  73  84 S9        30.02F
PT SAN ANTONIO PTCLDY    78  72  82 S6        30.01S
SAN ANTONIO    PTCLDY    79  73  82 S7        30.03S
STINSON FIELD  MOCLDY    78  73  84 SE5       30.00S
*PLEASANTON    CLEAR     78  72  81 SE6       30.01S
*LA GRANGE     CLEAR     79  76  92 S5        29.98F
*GIDDINGS      CLEAR     78  74  86 S6        30.04S
*GONZALES      MOCLDY    79  77  91 S5        30.00S
$$

TXZ163>164-176>182-195>201-210>213-226-227-235-230800-
SOUTHEAST TEXAS

CITY           SKY/WX    TMP DP  RH WIND       PRES   REMARKS
COLLEGE STN    CLEAR     79  73  82 S8        30.00S
*BRYAN         CLEAR     79  73  83 S8        30.00S
*CALDWELL      CLEAR     79  73  83 S5        30.03S
*CROCKETT      CLEAR     81  77  89 S5        30.04R
*BRENHAM       CLEAR     78  74  88 SE3       30.01S
HUNTSVILLE     CLEAR     79  73  82 S6        30.01F
CONROE         CLEAR     74  72  93 CALM      30.02S
HOUSTON BUSH   CLEAR     79  75  87 S3        30.00F
HOUSTON HOBBY  PTCLDY    78  74  87 SW3       29.99F
*HOUSTON SW AP CLEAR     74  74 100 MISG      30.01S
PEARLAND       CLEAR     78  73  84 CALM      30.01S
HOUSTON HOOKS  CLEAR     76  75  97 SW3       30.01S
ELLINGTON FLD  CLEAR     81  75  83 S2        30.02S
SUGAR LAND     CLEAR     77  74  90 SW3       30.00S
*HOUSTON EXEC  NOT AVBL
*CLEVELAND MUN CLEAR     73  73  97 CALM      30.02S FOG
*WHARTON       CLEAR     74  73  95 CALM      30.01S
$$

TXZ214>216-236>238-230800-
THE UPPER TEXAS COAST

CITY           SKY/WX    TMP DP  RH WIND       PRES   REMARKS
*ORANGE        CLEAR     77  77 100 CALM      30.01F
PORT ARTHUR    CLEAR     77  75  93 CALM      29.99F
GALVESTON      CLEAR     84  77  79 S13       30.00F HX  94
ANGLETON       CLEAR     76  74  93 CALM      29.99F
*BAY CITY      CLEAR     79  79 100 CALM      29.99F
PALACIOS       CLEAR     83  77  82 S8        29.99F HX  92
$$

TXZ229>234-239>247-230800-
TEXAS COASTAL BEND AND RIO GRANDE PLAINS

CITY           SKY/WX    TMP DP  RH WIND       PRES   REMARKS
VICTORIA       CLEAR     78  75  90 SE6       30.00F
*BEEVILLE      CLEAR     76  75  96 SE3       30.00S
ROCKPORT       CLEAR     83  77  82 SE7       29.98F HX  92
*PORT ARANSAS  CLEAR     81  78  90 S7        29.98F
*PORT LAVACA   CLEAR     77  74  92 CALM      29.99F
*INGLESIDE     CLEAR     82  77  83 SE8       29.98F HX  91
CORPUS CHRISTI PTCLDY    77  73  87 S6        29.98F
CORPUS NAS     CLEAR     82  79  90 SE9       29.98F HX  92
*ROBSTOWN      CLEAR     80  75  82 S6        29.99F
ALICE          CLEAR     76  74  93 S6        29.98F
KINGSVILLE NAS CLEAR     80  77  90 S6        29.98F
COTULLA        CLEAR     80  67  64 SE10      29.99S
*FAITH RANCH   CLEAR     84  66  54 SE15G25   29.98R
LAREDO         CLEAR     82  70  67 SE13      30.01S
$$

TXZ248>255-230800-
DEEP SOUTH TEXAS

CITY           SKY/WX    TMP DP  RH WIND       PRES   REMARKS
BROWNSVILLE    MOCLDY    81  78  91 SE7       29.99S
PORT ISABEL    MOCLDY    83  77  82 SE9       29.98S HX  92
*SOUTH PADRE     N/A     81  79  94 SE7       29.98F
HARLINGEN      PTCLDY    80  77  90 SE6       29.98S
*HEBBRONVILLE  CLEAR     78  71  78 SE8       30.01F
MCALLEN        CLEAR     81  75  82 SE5       29.99F
*WESLACO       PTCLDY    80  74  81 S3        29.98F
FALFURRIAS     CLEAR     77  72  84 CALM      29.98F
EDINBURG       MOCLDY    80  74  83 SE5       29.99F
*ZAPATA        MOCLDY    81  68  65 SE10      29.98S
$$

TXZ213>215-236>238-242>244-246-247-251-254-255-230800-
CMAN STATIONS

STATION/POSITION TIME  TEMP    WIND        PRES    WAVE
                       AIR SEA DIR/SP/G            HT/PER
                 (UTC) (F)     (DEG/KT/KT) (MB)    (FT/S)
SABINE PASS      0600   83 88  200/  4/  5 1016.0
SEA RIM ST PARK  0600   84     190/  7/  9 1016.4
NORTH JETTY/GLS  0600   85 87  200/ 12/ 15   N/A
EAGLE POINT      0600   85 88  200/ 10/ 13 1015.8
MORGANS POINT    0600   84     200/  5/  8 1015.6
MISSION/ARANSAS  0600   83     140/ 13     1017.0
PORT O`CONNOR    0600          140/ 14/ 16   N/A
PORT ARANSAS     0600   82 85  130/  9/ 10 1016.0
MALAQUITE BEACH  0600   81 81  140/  9/  9 1014.7
BAFFIN BAY       0600   82 83  140/ 10/ 13 1015.2
PORT ISABEL      0600   82 82  130/  6/ 11 1015.6
$$

GMZ080-GMZ150>470-230800-
OFFSHORE BUOY REPORTS

STATION/POSITION TIME  TEMP    WIND        PRES    WAVE
                       AIR SEA DIR/SP/G            HT/PER
                 (UTC) (F)     (DEG/KT/KT) (MB)    (FT/S)
90 E PT ARANSAS  0700   85 85  150/ 14/ 16 1015.9    2/ 6
35 NE PT MANSFLD 0600   85 85  130/ 16/ 17 1014.8    3/ 4
200 E PT ISABEL  0600   85 86  120/ 12/ 16 1015.7    2/ 5
$$